Starlink 32424

operational
NORAD ID: 61548 Int'l Des: 2024-184 Owner: SPXS Country: US Constellation: starlink
LEOCIRCULAR

About Starlink 32424

Description loading...

Live Position

Loading 3D Globe...

Upcoming Passes

Altitude History

Altitude vs Time

uPlot chart will show altitude changes over time

Two-Line Element Set

1 61548U 24184S 25352.49909898 .00000826 00000-0 40019-4 0 9990
2 61548 53.1620 31.2581 0001309 95.4218 264.6932 15.30193277 66074
Epoch: Dec 18, 2025 • Age: 17 hours

Current Status

Altitude 494.5 km
Velocity 7.62 km/s
Sub-Earth Point -52.86°S, 147.48°E
Launch Date Oct 15, 2024
Age 1.1 years
Type internet

Technical Details

Classification Payload
Mass 730.00 kg
Dry Mass 700.00 kg
Total Mass 730.00 kg
Length 0.30 m
Diameter 4.10 m
Span 29.00 m
Shape Box + pan
Manufacturer SPXS
Bus Type Starlink V2M
Phase Status In Orbit
Owner/State SPXS/US

Large Constellations

Loading constellations...